period_start,C,m1,H,J0,J1,J2,J3,J4,J5,JA,JB,JC,JD,JJ,JK,JN,#
2015-07-25 00:02:36,0.00,0.32,0.00,25.22,28.85,31.23,4.67,23.13,1008.82,2032.56,3285.98,3135.99,3416.00,349.50,341.91,26.59,0000 0000 0000 0000 000000
2015-07-25 00:07:38,-0.04,0.33,0.00,25.21,28.86,31.23,4.67,23.02,1008.84,2032.58,3285.97,3135.99,3416.00,349.70,342.17,26.62,0000 0000 0000 0000 000000
2015-07-25 00:12:39,-0.02,0.32,0.00,25.19,28.87,31.23,4.67,23.02,1008.85,2032.22,3285.94,3135.98,3416.00,350.42,342.95,26.65,0000 0000 0000 0000 000000
2015-07-25 00:17:41,-0.00,0.32,0.00,25.17,28.87,31.23,4.69,23.02,1008.84,2032.23,3285.93,3135.98,3416.00,349.95,342.55,26.68,0000 0000 0000 0000 000000
2015-07-25 00:22:42,-0.01,0.32,0.00,25.15,28.87,31.24,4.70,23.00,1008.83,2032.11,3285.82,3135.97,3416.00,350.15,342.79,26.71,0000 0000 0000 0000 000000
2015-07-25 00:27:43,0.01,0.32,0.00,25.15,28.87,31.23,4.64,23.09,1008.82,2032.10,3285.62,3135.97,3415.99,349.10,341.55,26.73,0000 0000 0000 0000 000000
2015-07-25 00:32:44,0.02,0.32,0.00,25.13,28.87,31.24,4.69,22.97,1008.83,2032.06,3285.15,3135.77,3415.92,350.14,342.48,26.76,0000 0000 0000 0000 000000
2015-07-25 00:37:45,0.03,0.33,0.00,25.12,28.87,31.26,4.69,22.98,1008.81,2032.03,3285.01,3135.31,3415.49,350.06,342.72,26.79,0000 0000 0000 0000 000000
2015-07-25 00:42:47,0.01,0.33,0.00,25.10,28.87,31.24,4.69,23.06,1008.83,2032.03,3285.00,3135.08,3415.11,350.14,342.88,26.82,0000 0000 0000 0000 000000
2015-07-25 00:47:48,0.00,0.33,0.00,25.10,28.87,31.26,4.69,23.01,1008.86,2032.04,3284.99,3135.10,3415.11,349.93,342.50,26.85,0000 0000 0000 0000 000000
2015-07-25 00:52:49,-0.01,0.33,0.00,25.08,28.86,31.28,4.66,23.01,1008.87,2032.03,3284.99,3135.14,3415.10,350.04,342.72,26.88,0000 0000 0000 0000 000000
2015-07-25 00:57:51,0.00,0.33,0.00,25.07,28.85,31.26,4.64,23.19,1008.87,2032.07,3284.99,3135.23,3415.10,349.64,342.29,26.91,0000 0000 0000 0000 000000
2015-07-25 01:02:52,-0.01,0.33,0.00,25.06,28.85,31.26,4.73,23.03,1008.93,2032.03,3284.99,3135.25,3415.12,350.06,342.88,26.94,0000 0000 0000 0000 000000
2015-07-25 01:07:53,0.02,0.33,0.00,25.05,28.85,31.27,4.71,23.07,1009.12,2032.14,3284.99,3135.39,3415.15,350.20,342.96,26.97,0000 0000 0000 0000 000000
2015-07-25 01:12:54,0.00,0.33,0.00,25.04,28.85,31.28,4.69,22.99,1009.08,2032.14,3284.98,3135.23,3415.07,350.20,343.05,27.00,0000 0000 0000 0000 000000
2015-07-25 01:17:55,-0.00,0.33,0.00,25.02,28.84,31.27,4.69,23.04,1009.12,2032.25,3284.99,3135.48,3415.16,350.55,343.40,27.03,0000 0000 0000 0000 000000
2015-07-25 01:22:57,0.05,0.33,0.00,25.01,28.82,31.26,4.68,23.21,1009.22,2032.62,3284.99,3135.81,3415.58,349.92,342.70,27.06,0000 0000 0000 0000 000000
2015-07-25 01:27:58,-0.01,0.33,0.00,25.00,28.82,31.26,4.63,23.06,1009.23,2032.71,3284.99,3135.92,3415.70,349.99,342.84,27.09,0000 0000 0000 0000 000000
2015-07-25 01:32:59,0.03,0.33,0.00,24.98,28.82,31.26,4.73,23.13,1009.27,2032.85,3284.99,3135.94,3415.78,350.03,342.91,27.12,0000 0000 0000 0000 000000
2015-07-25 01:38:01,-0.03,0.33,0.00,24.97,28.81,31.28,4.63,23.13,1009.29,2032.79,3284.99,3135.95,3415.81,349.57,342.43,27.14,0000 0000 0000 0000 000000
2015-07-25 01:43:02,0.01,0.33,0.00,24.97,28.80,31.26,4.71,23.06,1009.29,2032.74,3284.99,3135.96,3415.73,349.85,342.90,27.17,0000 0000 0000 0000 000000
2015-07-25 01:48:03,0.01,0.33,0.00,24.95,28.80,31.26,4.68,23.08,1009.29,2032.85,3284.99,3135.96,3415.84,349.72,342.59,27.20,0000 0000 0000 0000 000000
2015-07-25 01:53:05,0.01,0.33,0.00,24.93,28.79,31.24,4.74,23.13,1009.29,2032.87,3284.99,3135.98,3415.75,349.88,342.93,27.23,0000 0000 0000 0000 000000
2015-07-25 01:58:06,0.01,0.33,0.00,24.92,28.77,31.22,4.72,23.28,1009.29,2032.94,3284.98,3135.98,3415.62,349.91,342.92,27.26,0000 0000 0000 0000 000000
2015-07-25 02:03:07,0.01,0.33,0.00,24.92,28.77,31.24,4.72,23.18,1009.29,2032.91,3284.97,3135.95,3415.21,350.12,343.20,27.29,0000 0000 0000 0000 000000
2015-07-25 02:08:09,-0.01,0.33,0.00,24.90,28.77,31.25,4.72,23.04,1009.29,2032.97,3284.99,3135.98,3415.56,350.33,343.28,27.32,0000 0000 0000 0000 000000
2015-07-25 02:13:10,-0.00,0.33,0.00,24.89,28.75,31.22,4.71,23.01,1009.29,2032.97,3284.99,3135.99,3415.76,350.70,343.54,27.35,0000 0000 0000 0000 000000
2015-07-25 02:18:11,0.00,0.33,0.00,24.87,28.75,31.22,4.64,23.13,1009.29,2032.99,3284.98,3135.99,3415.82,349.21,342.40,27.38,0000 0000 0000 0000 000000
2015-07-25 02:23:13,0.00,0.33,0.00,24.87,28.74,31.22,4.66,23.00,1009.29,2032.99,3284.98,3135.99,3415.71,349.90,342.95,27.41,0000 0000 0000 0000 000000
2015-07-25 02:28:14,-0.00,0.33,0.00,24.87,28.72,31.20,4.73,23.20,1009.29,2032.99,3284.98,3135.99,3415.88,349.87,342.68,27.44,0000 0000 0000 0000 000000
2015-07-25 02:33:15,-0.00,0.33,0.00,24.85,28.72,31.19,4.73,23.13,1009.29,2032.99,3284.98,3136.00,3415.89,350.48,343.51,27.47,0000 0000 0000 0000 000000
2015-07-25 02:38:16,0.00,0.33,0.00,24.85,28.70,31.19,4.72,23.04,1009.29,2032.99,3284.95,3136.00,3415.81,349.93,343.05,27.50,0000 0000 0000 0000 000000
2015-07-25 02:43:17,-0.00,0.33,0.00,24.85,28.70,31.16,4.67,23.07,1009.29,2032.99,3284.93,3136.00,3415.80,350.12,343.30,27.53,0000 0000 0000 0000 000000
2015-07-25 02:48:18,0.00,0.33,0.00,24.85,28.70,31.16,4.70,23.09,1009.29,2032.99,3284.93,3136.00,3415.75,349.75,342.81,27.55,0000 0000 0000 0000 000000
2015-07-25 02:53:19,0.00,0.33,0.00,24.83,28.67,31.15,4.66,22.95,1009.29,2032.99,3284.85,3136.00,3415.81,349.64,342.88,27.58,0000 0000 0000 0000 000000
2015-07-25 02:58:21,0.03,0.33,0.00,24.82,28.67,31.13,4.71,23.31,1009.29,2032.99,3284.45,3136.01,3415.69,350.09,343.31,27.61,0000 0000 0000 0000 000000
2015-07-25 03:03:22,-0.03,0.33,0.00,24.81,28.66,31.10,4.63,23.09,1009.29,2032.99,3284.62,3136.03,3415.83,349.74,343.03,27.64,0000 0000 0000 0000 000000
2015-07-25 03:08:24,0.01,0.33,0.00,24.80,28.65,31.12,4.69,23.20,1009.29,2033.00,3284.55,3136.03,3415.76,350.00,342.89,27.67,0000 0000 0000 0000 000000
2015-07-25 03:13:25,0.02,0.33,0.00,24.77,28.65,31.11,4.67,23.00,1009.29,2033.00,3284.15,3136.02,3415.56,349.96,343.09,27.70,0000 0000 0000 0000 000000
2015-07-25 03:18:27,0.00,0.33,0.00,24.77,28.62,31.10,4.69,23.04,1009.30,2033.00,3284.02,3136.02,3415.27,350.00,343.09,27.73,0000 0000 0000 0000 000000
2015-07-25 03:23:28,0.01,0.33,0.00,24.76,28.62,31.07,4.73,23.07,1009.29,2033.01,3284.00,3136.04,3415.25,349.95,343.10,27.76,0000 0000 0000 0000 000000
2015-07-25 03:28:29,0.01,0.33,0.00,24.75,28.61,31.08,4.69,23.13,1009.29,2033.04,3284.00,3136.04,3415.18,350.48,343.70,27.79,0000 0000 0000 0000 000000
2015-07-25 03:33:31,-0.01,0.33,0.00,24.75,28.60,31.07,4.71,23.24,1009.30,2033.15,3284.00,3136.11,3415.23,349.67,342.65,27.82,0000 0000 0000 0000 000000
2015-07-25 03:38:32,0.00,0.33,0.00,24.74,28.60,31.08,4.72,23.17,1009.30,2033.16,3284.00,3136.13,3415.20,350.03,342.87,27.85,0000 0000 0000 0000 000000
2015-07-25 03:43:33,0.02,0.33,0.00,24.73,28.58,31.06,4.70,22.94,1009.30,2033.18,3284.00,3136.11,3415.19,349.68,342.96,27.88,0000 0000 0000 0000 000000
2015-07-25 03:48:35,0.02,0.33,0.00,24.72,28.57,31.05,4.72,23.09,1009.30,2033.32,3283.99,3136.24,3415.22,349.80,342.91,27.91,0000 0000 0000 0000 000000
2015-07-25 03:53:36,0.00,0.33,0.00,24.70,28.56,31.01,4.70,23.09,1009.32,2033.58,3283.99,3136.58,3415.48,350.23,343.45,27.94,0000 0000 0000 0000 000000
2015-07-25 03:58:37,0.01,0.33,0.00,24.69,28.55,31.04,4.68,23.28,1009.34,2033.81,3283.98,3136.82,3415.57,349.64,342.85,27.96,0000 0000 0000 0000 000000
2015-07-25 04:03:38,0.02,0.33,0.00,24.69,28.55,31.02,4.68,23.05,1009.38,2033.93,3283.99,3136.87,3415.71,349.54,342.81,27.99,0000 0000 0000 0000 000000
2015-07-25 04:08:40,-0.00,0.33,0.00,24.69,28.53,31.00,4.70,23.07,1009.44,2033.88,3283.98,3136.74,3415.41,350.34,343.47,28.02,0000 0000 0000 0000 000000
2015-07-25 04:13:41,0.00,0.33,0.00,24.67,28.52,30.99,4.66,23.00,1009.39,2033.94,3283.98,3136.81,3415.48,349.82,343.02,28.05,0000 0000 0000 0000 000000
2015-07-25 04:18:42,0.01,0.33,0.00,24.67,28.51,30.97,4.67,23.02,1009.34,2033.95,3283.94,3136.78,3415.24,349.57,342.81,28.08,0000 0000 0000 0000 000000
2015-07-25 04:23:43,0.00,0.33,0.00,24.65,28.50,30.95,4.68,23.09,1009.32,2033.96,3283.91,3136.80,3415.15,349.72,343.04,28.11,0000 0000 0000 0000 000000
2015-07-25 04:28:44,-0.01,0.33,0.00,24.65,28.50,30.97,4.69,23.04,1009.31,2033.98,3283.93,3136.94,3415.45,350.28,343.52,28.14,0000 0000 0000 0000 000000
2015-07-25 04:33:46,-0.00,0.33,0.00,24.64,28.48,30.97,4.70,23.06,1009.32,2033.98,3283.90,3136.96,3415.57,349.94,343.42,28.17,0000 0000 0000 0000 000000
2015-07-25 04:38:47,-0.01,0.33,0.00,24.62,28.47,30.95,4.74,23.05,1009.30,2033.99,3283.94,3136.98,3415.82,350.09,343.42,28.20,0000 0000 0000 0000 000000
2015-07-25 04:43:48,0.01,0.33,0.00,24.62,28.46,30.92,4.67,23.10,1009.30,2033.99,3283.77,3136.96,3415.62,349.90,343.36,28.23,0000 0000 0000 0000 000000
2015-07-25 04:48:50,-0.01,0.33,0.00,24.61,28.45,30.92,4.67,23.17,1009.30,2033.99,3283.67,3136.98,3415.71,349.24,342.35,28.26,0000 0000 0000 0000 000000
2015-07-25 04:53:51,-0.00,0.33,0.00,24.60,28.45,30.88,4.70,23.06,1009.31,2033.99,3283.69,3136.99,3415.83,349.97,343.19,28.29,0000 0000 0000 0000 000000
2015-07-25 04:58:52,0.00,0.33,0.00,24.60,28.44,30.90,4.77,23.35,1009.34,2033.99,3283.65,3136.99,3415.92,350.12,343.53,28.32,0000 0000 0000 0000 000000
2015-07-25 05:03:53,-0.00,0.33,0.00,24.59,28.42,30.90,4.73,23.09,1009.41,2033.99,3283.67,3136.99,3415.87,349.82,343.32,28.35,0000 0000 0000 0000 000000
2015-07-25 05:08:54,0.01,0.33,0.00,24.58,28.42,30.87,4.69,23.00,1009.61,2034.01,3283.51,3136.99,3415.93,350.10,343.56,28.37,0000 0000 0000 0000 000000
2015-07-25 05:13:56,0.01,0.33,0.00,24.57,28.40,30.84,4.68,23.05,1009.69,2034.00,3283.23,3136.99,3415.77,349.42,343.02,28.40,0000 0000 0000 0000 000000
2015-07-25 05:18:57,0.01,0.33,0.00,24.57,28.40,30.85,4.72,23.10,1009.72,2034.00,3283.05,3136.99,3415.43,350.36,343.90,28.43,0000 0000 0000 0000 000000
2015-07-25 05:23:59,0.00,0.33,0.00,24.57,28.40,30.84,4.74,23.12,1009.74,2034.03,3283.03,3136.99,3415.61,350.39,343.89,28.46,0000 0000 0000 0000 000000
2015-07-25 05:29:00,0.01,0.33,0.00,24.55,28.38,30.83,4.70,22.98,1009.74,2034.03,3283.00,3136.99,3415.44,350.30,343.86,28.49,0000 0000 0000 0000 000000
2015-07-25 05:34:01,-0.00,0.33,0.00,24.54,28.37,30.83,4.73,23.08,1009.71,2034.05,3283.00,3136.99,3415.36,349.94,343.73,28.52,0000 0000 0000 0000 000000
2015-07-25 05:39:02,0.02,0.33,0.00,24.52,28.36,30.84,4.72,23.08,1009.67,2034.14,3283.00,3136.99,3415.33,350.55,344.12,28.55,0000 0000 0000 0000 000000
2015-07-25 05:44:03,0.03,0.33,0.00,24.53,28.35,30.83,4.68,23.07,1009.70,2034.31,3283.00,3136.99,3415.53,349.50,343.49,28.58,0000 0000 0000 0000 000000
2015-07-25 05:49:04,-0.00,0.33,0.00,24.52,28.35,30.79,4.70,23.00,1009.75,2034.25,3283.00,3136.99,3415.15,350.02,343.52,28.61,0000 0000 0000 0000 000000
2015-07-25 05:54:05,0.02,0.34,0.00,24.51,28.34,30.81,4.75,23.13,1009.77,2034.42,3282.98,3136.99,3415.08,350.44,344.03,28.64,0000 0000 0000 0000 000000
2015-07-25 05:59:06,0.05,0.34,0.00,24.50,28.32,30.79,4.74,23.26,1009.78,2034.69,3282.96,3136.99,3415.10,350.46,344.02,28.67,0000 0000 0000 0000 000000
2015-07-25 06:04:08,0.02,0.34,0.00,24.50,28.32,30.76,4.60,23.13,1009.78,2034.84,3282.97,3136.99,3415.11,348.99,342.79,28.70,0000 0000 0000 0000 000000
2015-07-25 06:09:09,0.00,0.34,0.00,24.49,28.31,30.75,4.78,23.07,1009.78,2034.82,3282.89,3136.99,3415.05,350.08,343.43,28.73,0000 0000 0000 0000 000000
2015-07-25 06:14:10,0.02,0.34,0.00,24.47,28.30,30.76,4.66,23.08,1009.78,2034.96,3282.64,3136.99,3415.09,349.77,343.34,28.76,0000 0000 0000 0000 000000
2015-07-25 06:19:11,0.01,0.34,0.00,24.47,28.30,30.75,4.73,23.21,1009.78,2034.95,3282.20,3136.99,3415.02,350.42,344.09,28.78,0000 0000 0000 0000 000000
2015-07-25 06:24:13,0.00,0.34,0.00,24.47,28.28,30.75,4.74,23.17,1009.78,2034.95,3282.05,3136.99,3415.00,350.16,343.82,28.81,0000 0000 0000 0000 000000
2015-07-25 06:29:14,0.00,0.34,0.00,24.46,28.27,30.74,4.64,23.03,1009.78,2034.98,3282.03,3136.99,3415.00,349.81,343.30,28.84,0000 0000 0000 0000 000000
2015-07-25 06:34:15,0.00,0.34,0.00,24.45,28.27,30.73,4.70,23.01,1009.78,2034.98,3282.01,3136.99,3415.00,349.97,343.64,28.87,0000 0000 0000 0000 000000
2015-07-25 06:39:17,-0.00,0.34,0.00,24.45,28.26,30.71,4.68,23.09,1009.78,2034.98,3282.00,3136.99,3415.00,349.12,342.94,28.90,0000 0000 0000 0000 000000
2015-07-25 06:44:18,-0.00,0.34,0.00,24.45,28.25,30.70,4.77,23.18,1009.78,2034.99,3282.00,3136.99,3415.00,350.21,343.69,28.93,0000 0000 0000 0000 000000
2015-07-25 06:49:19,0.00,0.34,0.00,24.45,28.25,30.69,4.73,23.09,1009.78,2034.98,3281.98,3136.99,3415.00,350.74,344.43,28.96,0000 0000 0000 0000 000000
2015-07-25 06:54:20,0.00,0.34,0.00,24.43,28.23,30.68,4.65,23.07,1009.78,2034.99,3281.99,3137.00,3415.00,349.71,343.40,28.99,0000 0000 0000 0000 000000
2015-07-25 06:59:21,0.00,0.34,0.00,24.42,28.22,30.66,4.68,23.36,1009.78,2034.99,3281.92,3137.00,3414.98,349.28,343.12,29.02,0000 0000 0000 0000 000000
2015-07-25 07:04:23,0.00,0.34,0.00,24.41,28.22,30.66,4.69,23.05,1009.79,2034.99,3281.93,3137.01,3414.99,350.08,343.70,29.05,0000 0000 0000 0000 000000
2015-07-25 07:09:24,0.01,0.34,0.00,24.40,28.21,30.68,4.71,23.07,1009.79,2034.99,3281.58,3137.00,3414.97,349.60,343.39,29.08,0000 0000 0000 0000 000000
2015-07-25 07:14:25,0.01,0.34,0.00,24.40,28.20,30.66,4.66,23.14,1009.78,2034.99,3281.25,3137.00,3414.98,349.64,343.49,29.11,0000 0000 0000 0000 000000
2015-07-25 07:19:26,0.00,0.34,0.00,24.39,28.20,30.66,4.72,23.10,1009.78,2035.00,3281.09,3137.01,3414.97,349.71,343.37,29.14,0000 0000 0000 0000 000000
2015-07-25 07:24:28,0.01,0.34,0.00,24.37,28.19,30.64,4.69,23.05,1009.78,2035.02,3281.01,3137.00,3414.90,350.09,343.95,29.17,0000 0000 0000 0000 000000
2015-07-25 07:29:29,0.01,0.34,0.00,24.35,28.17,30.64,4.73,23.11,1009.79,2035.02,3280.99,3137.00,3414.44,350.30,344.09,29.19,0000 0000 0000 0000 000000
2015-07-25 07:34:30,-0.00,0.34,0.00,24.36,28.17,30.66,4.67,22.94,1009.79,2035.05,3280.99,3137.00,3414.57,349.59,343.31,29.22,0000 0000 0000 0000 000000
2015-07-25 07:39:31,-0.01,0.34,0.00,24.38,28.17,30.62,4.73,23.10,1009.80,2035.11,3280.98,3137.01,3414.56,350.55,344.22,29.25,0000 0000 0000 0000 000000
2015-07-25 07:44:33,0.04,0.34,0.00,24.39,28.16,30.60,4.76,23.15,1009.80,2035.29,3280.96,3137.01,3414.55,350.07,343.73,29.28,0000 0000 0000 0000 000000
2015-07-25 07:49:34,0.01,0.34,0.00,24.38,28.15,30.58,4.73,23.12,1009.82,2035.22,3280.89,3137.00,3414.25,350.78,344.35,29.31,0000 0000 0000 0000 000000
2015-07-25 07:54:35,0.06,0.34,0.00,24.37,28.15,30.58,4.65,23.13,1010.00,2035.51,3280.67,3137.02,3414.15,349.74,343.48,29.34,0000 0000 0000 0000 000000
2015-07-25 07:59:36,-0.03,0.34,0.00,24.37,28.14,30.57,4.73,23.36,1010.10,2035.44,3280.12,3137.00,3414.06,349.93,343.76,29.37,0000 0000 0000 0000 000000
2015-07-25 08:04:38,0.07,0.34,0.00,24.38,28.12,30.55,4.72,23.13,1010.17,2035.69,3280.01,3137.00,3414.01,350.47,344.39,29.40,0000 0000 0000 0000 000000
2015-07-25 08:09:39,0.00,0.35,0.00,24.39,28.12,30.54,4.75,23.14,1010.26,2035.78,3280.00,3137.00,3414.00,350.53,344.08,29.43,0000 0000 0000 0000 000000
2015-07-25 08:14:40,0.01,0.35,0.00,24.39,28.12,30.54,4.69,23.07,1010.27,2035.82,3280.00,3137.00,3414.00,350.05,343.96,29.46,0000 0000 0000 0000 000000
2015-07-25 08:19:42,0.01,0.35,0.00,24.39,28.11,30.53,4.68,23.18,1010.27,2035.88,3279.94,3137.00,3414.00,350.08,344.15,29.49,0000 0000 0000 0000 000000
2015-07-25 08:24:43,0.03,0.35,0.00,24.38,28.10,30.51,4.67,23.24,1010.27,2035.95,3279.58,3137.00,3413.98,349.26,343.40,29.52,0000 0000 0000 0000 000000
2015-07-25 08:29:44,0.01,0.35,0.00,24.39,28.10,30.50,4.66,23.11,1010.27,2035.96,3279.09,3136.98,3413.94,349.49,343.16,29.55,0000 0000 0000 0000 000000
2015-07-25 08:34:46,0.00,0.35,0.00,24.38,28.10,30.49,4.72,23.22,1010.27,2035.96,3279.00,3136.99,3413.84,350.38,344.44,29.57,0000 0000 0000 0000 000000
2015-07-25 08:39:47,0.01,0.35,0.00,24.37,28.08,30.50,4.67,23.19,1010.27,2035.98,3279.00,3136.99,3413.40,349.62,343.72,29.60,0000 0000 0000 0000 000000
2015-07-25 08:44:48,0.01,0.35,0.00,24.36,28.07,30.48,4.63,23.05,1010.27,2035.98,3278.98,3136.98,3413.09,349.99,343.94,29.63,0000 0000 0000 0000 000000
2015-07-25 08:49:50,0.01,0.35,0.00,24.36,28.07,30.47,4.74,23.10,1010.27,2035.98,3278.71,3136.97,3413.02,350.46,344.18,29.66,0000 0000 0000 0000 000000
2015-07-25 08:54:51,0.02,0.35,0.00,24.35,28.07,30.48,4.74,23.09,1010.27,2035.98,3278.15,3136.93,3413.00,349.93,343.77,29.69,0000 0000 0000 0000 000000
2015-07-25 08:59:52,0.00,0.35,0.00,24.35,28.05,30.45,4.73,23.38,1010.27,2035.98,3278.00,3136.80,3413.00,350.03,343.96,29.72,0000 0000 0000 0000 000000
2015-07-25 09:04:53,0.01,0.35,0.00,24.33,28.05,30.46,4.69,23.08,1010.27,2035.98,3278.00,3136.61,3412.99,349.65,343.54,29.75,0000 0000 0000 0000 000000
2015-07-25 09:09:55,0.01,0.35,0.00,24.32,28.05,30.45,4.68,23.12,1010.27,2035.99,3277.99,3136.41,3412.98,349.87,343.72,29.78,0000 0000 0000 0000 000000
2015-07-25 09:14:56,-0.00,0.35,0.00,24.33,28.05,30.43,4.70,23.16,1010.27,2035.99,3277.96,3136.50,3412.98,349.80,343.69,29.81,0000 0000 0000 0000 000000
2015-07-25 09:19:58,0.01,0.35,0.00,24.33,28.04,30.44,4.69,23.05,1010.27,2035.99,3277.82,3136.35,3412.94,350.15,344.23,29.84,0000 0000 0000 0000 000000
2015-07-25 09:24:59,0.03,0.35,0.00,24.33,28.02,30.42,4.78,23.18,1010.27,2035.99,3277.31,3136.15,3412.69,350.11,344.09,29.87,0000 0000 0000 0000 000000
2015-07-25 09:30:01,0.01,0.35,0.00,24.33,28.02,30.41,4.66,23.18,1010.27,2035.99,3277.07,3136.13,3412.42,349.55,343.62,29.90,0000 0000 0000 0000 000000
2015-07-25 09:35:02,-0.00,0.35,0.00,24.33,28.02,30.42,4.70,23.18,1010.27,2035.99,3277.01,3136.08,3412.22,349.86,343.91,29.93,0000 0000 0000 0000 000000
2015-07-25 09:40:03,0.00,0.35,0.00,24.33,28.02,30.41,4.70,23.23,1010.27,2035.99,3277.00,3136.03,3412.03,349.92,343.92,29.96,0000 0000 0000 0000 000000
2015-07-25 09:45:05,0.00,0.35,0.00,24.32,28.02,30.42,4.68,23.15,1010.28,2035.99,3276.96,3136.02,3412.01,349.58,343.60,29.98,0000 0000 0000 0000 000000
2015-07-25 09:50:06,0.01,0.35,0.00,24.31,28.00,30.41,4.69,23.18,1010.28,2035.99,3276.76,3136.01,3412.00,349.64,343.70,30.01,0000 0000 0000 0000 000000
2015-07-25 09:55:07,0.01,0.35,0.00,24.31,28.00,30.41,4.73,23.18,1010.27,2036.00,3276.34,3136.01,3412.00,349.77,343.65,30.04,0000 0000 0000 0000 000000
2015-07-25 10:00:08,0.00,0.35,0.00,24.30,28.00,30.41,4.72,23.27,1010.27,2036.00,3276.01,3136.00,3411.98,350.29,344.34,30.07,0000 0000 0000 0000 000000
2015-07-25 10:05:10,0.00,0.35,0.00,24.30,28.00,30.40,4.71,23.29,1010.27,2036.00,3276.00,3135.99,3411.93,350.42,344.33,30.10,0000 0000 0000 0000 000000
2015-07-25 10:10:11,0.00,0.35,0.00,24.30,27.99,30.40,4.71,23.21,1010.27,2036.00,3275.98,3135.98,3411.94,349.71,343.72,30.13,0000 0000 0000 0000 000000
2015-07-25 10:15:12,0.02,0.35,0.00,24.30,27.97,30.39,4.72,23.18,1010.30,2036.01,3275.85,3135.98,3411.62,350.01,343.99,30.16,0000 0000 0000 0000 000000
2015-07-25 10:20:13,0.03,0.35,0.00,24.30,27.97,30.38,4.67,23.14,1010.48,2036.00,3275.28,3135.95,3411.11,349.70,343.53,30.19,0000 0000 0000 0000 000000
2015-07-25 10:25:15,0.00,0.35,0.00,24.30,27.97,30.37,4.63,23.10,1010.70,2036.02,3275.03,3135.89,3411.02,349.95,344.12,30.22,0000 0000 0000 0000 000000
2015-07-25 10:30:16,0.01,0.35,0.00,24.28,27.97,30.38,4.66,23.16,1010.74,2036.02,3275.00,3135.67,3411.01,350.25,344.32,30.25,0000 0000 0000 0000 000000
2015-07-25 10:35:17,0.02,0.36,0.00,24.28,27.97,30.37,4.72,23.07,1010.76,2036.03,3274.98,3135.41,3411.00,350.16,344.43,30.28,0000 0000 0000 0000 000000
2015-07-25 10:40:18,0.02,0.36,0.00,24.27,27.96,30.37,4.71,23.16,1010.76,2036.02,3274.66,3135.06,3410.99,349.92,344.18,30.31,0000 0000 0000 0000 000000
2015-07-25 10:45:20,0.02,0.36,0.00,24.27,27.95,30.36,4.77,23.15,1010.76,2036.02,3274.08,3135.01,3410.92,350.41,344.72,30.34,0000 0000 0000 0000 000000
2015-07-25 10:50:21,0.01,0.36,0.00,24.27,27.95,30.35,4.69,23.14,1010.76,2036.02,3274.00,3135.00,3410.66,350.03,344.12,30.37,0000 0000 0000 0000 000000
2015-07-25 10:55:22,0.01,0.36,0.00,24.29,27.95,30.34,4.78,23.18,1010.76,2036.08,3273.98,3135.00,3410.32,350.13,344.27,30.39,0000 0000 0000 0000 000000
2015-07-25 11:00:23,0.01,0.36,0.00,24.27,27.95,30.33,4.77,23.19,1010.76,2036.08,3273.78,3135.00,3410.03,350.21,344.46,30.42,0000 0000 0000 0000 000000
2015-07-25 11:05:24,0.02,0.36,0.00,24.27,27.94,30.34,4.66,23.07,1010.76,2036.10,3273.12,3135.00,3410.01,349.96,344.11,30.45,0000 0000 0000 0000 000000
2015-07-25 11:10:26,0.01,0.36,0.00,24.28,27.93,30.34,4.65,23.04,1010.76,2036.12,3272.97,3134.96,3409.99,349.46,343.68,30.48,0000 0000 0000 0000 000000
2015-07-25 11:15:27,0.05,0.36,0.00,24.27,27.92,30.31,4.72,23.13,1010.76,2036.09,3272.45,3134.69,3409.76,349.85,343.98,30.51,0000 0000 0000 0000 000000
2015-07-25 11:20:28,0.05,0.36,0.00,24.27,27.92,30.31,4.73,23.05,1010.76,2036.19,3272.02,3134.19,3409.22,350.67,344.93,30.54,0000 0000 0000 0000 000000
2015-07-25 11:25:29,0.04,0.36,0.00,24.27,27.92,30.31,4.70,23.00,1010.76,2036.39,3271.99,3134.06,3409.05,349.59,343.69,30.57,0000 0000 0000 0000 000000
2015-07-25 11:30:31,0.02,0.36,0.00,24.26,27.92,30.31,4.73,23.02,1010.77,2036.50,3271.67,3134.00,3409.00,349.90,344.15,30.60,0000 0000 0000 0000 000000
2015-07-25 11:35:32,-0.02,0.36,0.00,24.24,27.92,30.32,4.70,23.15,1010.78,2036.34,3271.04,3134.00,3408.95,349.97,344.40,30.63,0000 0000 0000 0000 000000
2015-07-25 11:40:33,0.06,0.36,0.00,24.25,27.92,30.32,4.73,23.12,1010.79,2036.48,3271.00,3133.98,3408.57,350.57,344.55,30.66,0000 0000 0000 0000 000000
2015-07-25 11:45:34,0.05,0.36,0.00,24.25,27.91,30.31,4.77,23.23,1010.82,2036.53,3270.48,3133.72,3408.07,350.54,344.73,30.69,0000 0000 0000 0000 000000
2015-07-25 11:50:35,0.08,0.37,0.00,24.25,27.90,30.30,4.65,23.17,1010.79,2036.81,3270.03,3133.28,3408.02,349.28,343.54,30.72,0000 0000 0000 0000 000000
2015-07-25 11:55:36,0.01,0.37,0.00,24.25,27.90,30.30,4.71,23.12,1010.83,2036.91,3270.00,3133.09,3408.00,349.92,344.35,30.75,0000 0000 0000 0000 000000
2015-07-25 12:00:37,-0.00,0.37,0.00,24.23,27.90,30.31,4.72,23.30,1010.85,2036.93,3269.99,3133.03,3408.00,350.07,344.24,30.78,0000 0000 0000 0000 000000
2015-07-25 12:05:39,0.01,0.37,0.00,24.23,27.90,30.30,4.69,23.18,1010.86,2036.95,3269.76,3133.00,3407.98,350.15,344.54,30.80,0000 0000 0000 0000 000000
2015-07-25 12:10:40,0.01,0.37,0.00,24.25,27.90,30.30,4.69,23.13,1010.87,2036.96,3269.14,3133.00,3407.96,349.99,344.26,30.83,0000 0000 0000 0000 000000
2015-07-25 12:15:41,0.01,0.37,0.00,24.24,27.90,30.28,4.63,23.16,1010.83,2036.97,3269.01,3132.99,3407.63,349.59,343.89,30.86,0000 0000 0000 0000 000000
2015-07-25 12:20:43,0.00,0.37,0.00,24.25,27.89,30.28,4.72,23.18,1010.78,2036.96,3268.98,3132.95,3407.07,350.16,344.33,30.89,0000 0000 0000 0000 000000
2015-07-25 12:25:44,0.02,0.37,0.00,24.25,27.88,30.30,4.68,23.20,1010.79,2036.96,3268.69,3132.84,3407.00,349.69,343.90,30.92,0000 0000 0000 0000 000000
2015-07-25 12:30:45,0.02,0.37,0.00,24.23,27.87,30.28,4.74,23.18,1010.80,2036.99,3268.19,3132.65,3407.00,350.78,344.94,30.95,0000 0000 0000 0000 000000
2015-07-25 12:35:47,0.02,0.37,0.00,24.22,27.87,30.28,4.79,23.16,1010.88,2036.99,3268.01,3132.22,3406.98,350.24,344.67,30.98,0000 0000 0000 0000 000000
2015-07-25 12:40:48,0.00,0.37,0.00,24.23,27.87,30.28,4.75,23.20,1010.91,2036.98,3267.99,3132.05,3406.85,349.74,344.21,31.01,0000 0000 0000 0000 000000
2015-07-25 12:45:49,0.03,0.37,0.00,24.22,27.87,30.28,4.67,23.16,1011.11,2036.99,3267.73,3132.01,3406.33,349.47,343.87,31.04,0000 0000 0000 0000 000000
2015-07-25 12:50:51,0.02,0.37,0.00,24.22,27.87,30.27,4.72,23.13,1011.18,2036.99,3267.15,3132.00,3406.03,349.95,344.41,31.07,0000 0000 0000 0000 000000
2015-07-25 12:55:52,0.00,0.37,0.00,24.22,27.87,30.27,4.71,23.22,1011.20,2036.98,3267.00,3131.99,3406.00,349.74,344.20,31.10,0000 0000 0000 0000 000000
2015-07-25 13:00:53,0.00,0.37,0.00,24.22,27.85,30.25,4.73,23.31,1011.23,2036.99,3266.97,3131.98,3405.99,350.04,344.46,31.13,0000 0000 0000 0000 000000